Location: Brockett
(40.8000°S, 175.4500°E)
Time: 01:09:24
(UTC+00:00)

ATLAS 5 CENTAUR R/B - Visible Passes

Search period start: 19 November 2025 00:00
Search period end: 29 November 2025 00:00
Orbit: 375 x 1092 km, 63.3° (Epoch: 17 November)

Date Brightness Start Highest point End Pass type
(mag) Time Alt. Az. Time Alt. Az. Time Alt. Az.
19 Nov 3.5 09:12:00 10° NW 09:19:01 55° SW 09:25:51 10° SSE visible
19 Nov 5.3 10:58:35 10° WSW 11:03:10 18° SSW 11:07:33 10° S visible
19 Nov 5.4 14:32:21 10° S 14:34:29 12° SSE 14:36:29 10° SE visible
19 Nov 3.8 16:13:42 10° SSW 16:19:04 37° SE 16:23:26 10° ENE visible
20 Nov 2.9 08:23:16 10° NW 08:30:25 84° WSW 08:37:28 10° SSE visible
20 Nov 4.9 10:08:25 10° W 10:14:05 24° SW 10:19:31 10° SSE visible
20 Nov 4.6 15:25:28 10° SSW 15:30:11 24° SE 15:34:12 10° E visible
21 Nov 4.4 09:18:39 10° WNW 09:25:06 35° SW 09:31:20 10° SSE visible
21 Nov 5.7 11:06:59 10° SW 11:09:50 13° SSW 11:12:36 10° S visible
21 Nov 5.2 14:37:21 10° S 14:41:05 17° SSE 14:44:26 10° ESE visible
22 Nov 3.7 08:29:18 10° NW 08:36:16 52° SW 08:43:02 10° SSE visible
22 Nov 5.5 10:16:08 10° WSW 10:20:29 17° SSW 10:24:40 10° S visible
22 Nov 5.5 13:49:24 10° S 13:51:48 12° SSE 13:54:03 10° SE visible
22 Nov 3.5 15:30:51 10° SSW 15:36:17 40° SE 15:40:41 10° ENE visible
23 Nov 5.1 09:25:45 10° W 09:31:16 23° SW 09:36:33 10° SSE visible
23 Nov 4.4 14:42:29 10° SSW 14:47:19 25° SE 14:51:25 10° E visible
24 Nov 4.6 08:35:48 10° WNW 08:42:09 33° SW 08:48:15 10° SSE visible
24 Nov 5.7 10:24:22 10° SW 10:26:56 12° SSW 10:29:26 10° S visible
24 Nov 5.0 13:54:14 10° S 13:58:09 18° SSE 14:01:37 10° ESE visible
24 Nov 2.1 15:36:15 10° SSW 15:41:57 77° SE 15:46:25 10° NE visible
25 Nov 4.0 07:46:16 10° WNW 07:53:10 49° SW 07:59:51 10° SSE visible
25 Nov 5.5 09:33:19 10° WSW 09:37:27 16° SSW 09:41:27 10° S visible
25 Nov 5.3 13:06:08 10° S 13:08:46 13° SSE 13:11:13 10° SE visible
25 Nov 3.2 14:47:39 10° SSW 14:53:10 43° SE 14:57:36 10° ENE visible
26 Nov 5.3 08:42:44 10° W 08:48:05 22° SW 08:53:13 10° SSE visible
26 Nov 4.2 13:59:10 10° SSW 14:04:06 27° SE 14:08:15 10° E visible
26 Nov 2.0 15:41:47 10° SW 15:47:05 50° WNW 15:51:19 10° NNE visible
27 Nov 4.9 07:52:36 10° WNW 07:58:50 31° SW 08:04:50 10° SSE visible
27 Nov 5.7 09:41:24 10° SW 09:43:41 12° SSW 09:45:55 10° S visible
27 Nov 4.8 13:10:46 10° SSW 13:14:50 18° SSE 13:18:25 10° ESE visible
27 Nov 1.9 14:52:51 10° SW 14:58:32 84° SE 15:03:00 10° NE visible
28 Nov 5.4 08:50:08 10° WSW 08:54:04 15° SSW 08:57:52 10° S visible
28 Nov 5.0 12:22:31 10° S 12:25:22 13° SSE 12:28:00 10° SE visible
28 Nov 2.9 14:04:07 10° SSW 14:09:40 47° SE 14:14:07 10° ENE visible
28 Nov 2.9 15:47:41 10° WSW 15:51:44 23° WNW 15:55:11 10° NNW visible
